Regional Weather Roundup
Issued by NWS Green Bay, WI

Home | Current Version | Previous Version | Graphics & Text | Print | Product List | Glossary Off
Versions: 1 2 3 4 5 6 7 8 9 10 11 12 13 14 15 16 17 18 19 20 21 22 23 24 25 26 27 28 29 30 31 32 33 34 35 36 37 38 39 40 41 42 43 44 45 46 47 48 49 50

000
ASUS43 KGRB 220600
RWRGRB

NORTH-CENTRAL AND NORTHEAST WISCONSIN REGIONAL WEATHER ROUNDUP
NATIONAL WEATHER SERVICE GREEN BAY WI
1200 AM CST THU FEB 22 2018

WIZ005-009-010>012-018-019-220700-
NORTH CENTRAL WISCONSIN

CITY           SKY/WX    TMP DP  RH WIND       PRES   REMARKS
IRONWOOD       FAIR       8   2  76 SW5       30.63R WCI   0
MANITOWISH WTR NOT AVBL
ARBOR VITAE    NOT AVBL
EAGLE RIVER    FAIR      -3  -8  79 CALM      30.60S
LAND O LAKES   NOT AVBL
RHINELANDER    FAIR       2   0  91 CALM      30.61S
PHILLIPS       NOT AVBL
ANTIGO         NOT AVBL
TOMAHAWK       NOT AVBL
MERRILL        FAIR       2  -1  86 CALM      30.64S
$$

WIZ013-073-220700-
NORTHEAST WISCONSIN

CITY           SKY/WX    TMP DP  RH WIND       PRES   REMARKS
IRON MOUNTAIN  FAIR       6   0  76 CALM      30.63R
MARINETTE      FAIR      16  10  77 NW3       30.67S
$$

WIZ017-030-035>037-045-220700-
CENTRAL WISCONSIN

CITY           SKY/WX    TMP DP  RH WIND       PRES   REMARKS
MEDFORD        NOT AVBL
WAUSAU         FAIR       7   4  87 CALM      30.62S
MOSINEE        NOT AVBL
MARSHFIELD     FAIR      11   6  81 NE3       30.61S
WISC RAPIDS    FAIR      12   7  80 CALM      30.65S
STEVENS POINT  NOT AVBL
WAUPACA        NOT AVBL
SHAWANO        NOT AVBL
CLINTONVILLE   NOT AVBL
WAUTOMA        FAIR      15  11  83 CALM      30.66R
$$

WIZ038-039-048-051-220700-
FOX VALLEY

CITY           SKY/WX    TMP DP  RH WIND       PRES   REMARKS
NWS GREEN BAY  FAIR      19  10  68 CALM      30.66F
APPLETON       NOT AVBL
OSHKOSH        FAIR      19  10  68 N6        30.64F
FOND DU LAC    FAIR      21  12  68 NE6       30.64F
$$

WIZ022-050-052-220700-
EAST CENTRAL WISCONSIN

CITY           SKY/WX    TMP DP  RH WIND       PRES   REMARKS
EPHRAIM        NOT AVBL
WASHINGTON ISL NOT AVBL
STURGEON BAY   FAIR      18  12  77 N3        30.67S
MANITOWOC      FAIR      21  13  71 N3        30.67F
SHEBOYGAN      FAIR      22  14  71 N3        30.65F
$$

LMZ563-521-522-541>543-220700-
LAKESHORE

STATION/POSITION TIME  TEMP    WIND        PRES    VSBY  WAVE
                       AIR SEA DIR/SP/G                  HT/PER
                 (UTC) (F)     (DEG/KT/KT) (MB)    (MI)  (FT/S)
KEWAUNEE LKSHORE 0530   22     330/  1/  3 1037.5F
MENOMINEE LKSHOR 0530   19     280/  8/ 11 1038.0R
$$




USA.gov is the U.S. government's official web portal to all federal, state and local government web resources and services.